contact:dominique.lefevre@mio.osupytheas.fr, maurice.libes@osupytheas.fr, didier.mallarino@osupytheas.fr
Project:EMSO http://www.emso-fr.org/EMSO-France
Depth: 2436.0 m
Title:EMSO Ligure Ouest : Data MII capteur MICROCAT
DateTime_Computer,Latitude,Longitude,Temperature,Conductivity,Pressure,DateTime_Instrument
DateTime_Computer,Latitude,Longitude,degC,S m-1,dbar,DateTime_Instrument
2023-05-02T00:01:15Z,42.805,6.029,13.3034,4.60111,2470.624,2023-5-02T02:04:21Z
2023-05-02T00:04:18Z,42.805,6.029,13.3037,4.60117,2470.637,2023-5-02T02:07:24Z
2023-05-02T00:07:21Z,42.805,6.029,13.3026,4.60092,2470.614,2023-5-02T02:10:27Z
2023-05-02T00:10:24Z,42.805,6.029,13.3028,4.60097,2470.684,2023-5-02T02:13:30Z
2023-05-02T00:13:27Z,42.805,6.029,13.3024,4.60087,2470.614,2023-5-02T02:16:33Z
2023-05-02T00:16:30Z,42.805,6.029,13.3036,4.60088,2470.6,2023-5-02T02:19:36Z
2023-05-02T00:19:33Z,42.805,6.029,13.3031,4.60095,2470.646,2023-5-02T02:22:39Z
2023-05-02T00:22:36Z,42.805,6.029,13.3031,4.60107,2470.624,2023-5-02T02:25:42Z
2023-05-02T00:25:39Z,42.805,6.029,13.3034,4.60097,2470.661,2023-5-02T02:28:45Z
2023-05-02T00:28:42Z,42.805,6.029,13.3036,4.60103,2470.661,2023-5-02T02:31:48Z
2023-05-02T00:31:45Z,42.805,6.029,13.3032,4.60103,2470.684,2023-5-02T02:34:51Z
2023-05-02T00:34:48Z,42.805,6.029,13.3034,4.60104,2470.646,2023-5-02T02:37:54Z
2023-05-02T00:37:52Z,42.805,6.029,13.3029,4.60107,2470.684,2023-5-02T02:40:58Z
2023-05-02T00:40:55Z,42.805,6.029,13.3035,4.60093,2470.624,2023-5-02T02:44:01Z
2023-05-02T00:43:58Z,42.805,6.029,13.3026,4.60113,2470.661,2023-5-02T02:47:04Z
2023-05-02T00:47:01Z,42.805,6.029,13.3033,4.60099,2470.637,2023-5-02T02:50:07Z
2023-05-02T00:50:04Z,42.805,6.029,13.3027,4.60102,2470.646,2023-5-02T02:53:10Z
2023-05-02T00:53:07Z,42.805,6.029,13.3024,4.60092,2470.67,2023-5-02T02:56:13Z
2023-05-02T00:56:10Z,42.805,6.029,13.3024,4.60110,2470.624,2023-5-02T02:59:16Z
2023-05-02T00:59:13Z,42.805,6.029,13.3029,4.60096,2470.624,2023-5-02T03:02:19Z
2023-05-02T01:02:16Z,42.805,6.029,13.3030,4.60098,2470.707,2023-5-02T03:05:22Z
2023-05-02T01:05:19Z,42.805,6.029,13.3031,4.60112,2470.646,2023-5-02T03:08:25Z
2023-05-02T01:08:22Z,42.805,6.029,13.3032,4.60117,2470.67,2023-5-02T03:11:28Z
2023-05-02T01:11:25Z,42.805,6.029,13.3022,4.60106,2470.646,2023-5-02T03:14:31Z
2023-05-02T01:14:29Z,42.805,6.029,13.3029,4.60113,2470.646,2023-5-02T03:17:35Z
2023-05-02T01:17:32Z,42.805,6.029,13.3020,4.60090,2470.67,2023-5-02T03:20:38Z
2023-05-02T01:20:35Z,42.805,6.029,13.3029,4.60110,2470.67,2023-5-02T03:23:41Z
2023-05-02T01:23:38Z,42.805,6.029,13.3032,4.60100,2470.661,2023-5-02T03:26:44Z
2023-05-02T01:26:41Z,42.805,6.029,13.3027,4.60108,2470.684,2023-5-02T03:29:47Z
2023-05-02T01:29:44Z,42.805,6.029,13.3038,4.60125,2470.67,2023-5-02T03:32:50Z
2023-05-02T01:32:47Z,42.805,6.029,13.3031,4.60104,2470.624,2023-5-02T03:35:53Z
2023-05-02T01:35:50Z,42.805,6.029,13.3036,4.60099,2470.684,2023-5-02T03:38:56Z
2023-05-02T01:38:53Z,42.805,6.029,13.3032,4.60102,2470.684,2023-5-02T03:41:59Z
2023-05-02T01:41:56Z,42.805,6.029,13.3032,4.60104,2470.684,2023-5-02T03:45:02Z
2023-05-02T01:44:59Z,42.805,6.029,13.3034,4.60112,2470.684,2023-5-02T03:48:05Z
2023-05-02T01:48:02Z,42.805,6.029,13.3024,4.60109,2470.703,2023-5-02T03:51:08Z
2023-05-02T01:51:05Z,42.805,6.029,13.3039,4.60110,2470.684,2023-5-02T03:54:11Z
2023-05-02T01:54:08Z,42.805,6.029,13.3034,4.60116,2470.67,2023-5-02T03:57:15Z
2023-05-02T01:57:12Z,42.805,6.029,13.3037,4.60120,2470.693,2023-5-02T04:00:18Z
2023-05-02T02:00:15Z,42.805,6.029,13.3024,4.60089,2470.684,2023-5-02T04:03:21Z
2023-05-02T02:03:18Z,42.805,6.029,13.3024,4.60086,2470.67,2023-5-02T04:06:24Z
2023-05-02T02:06:21Z,42.805,6.029,13.3034,4.60107,2470.684,2023-5-02T04:09:27Z
2023-05-02T02:09:24Z,42.805,6.029,13.3034,4.60114,2470.693,2023-5-02T04:12:30Z
2023-05-02T02:12:27Z,42.805,6.029,13.3046,4.60120,2470.684,2023-5-02T04:15:33Z
2023-05-02T02:15:30Z,42.805,6.029,13.3032,4.60099,2470.67,2023-5-02T04:18:36Z
2023-05-02T02:18:33Z,42.805,6.029,13.3034,4.60117,2470.707,2023-5-02T04:21:39Z
2023-05-02T02:21:36Z,42.805,6.029,13.3037,4.60122,2470.693,2023-5-02T04:24:42Z
2023-05-02T02:24:39Z,42.805,6.029,13.3027,4.60108,2470.693,2023-5-02T04:27:45Z
2023-05-02T02:27:42Z,42.805,6.029,13.3024,4.60097,2470.656,2023-5-02T04:30:48Z
2023-05-02T02:30:45Z,42.805,6.029,13.3026,4.60102,2470.717,2023-5-02T04:33:51Z
2023-05-02T02:33:48Z,42.805,6.029,13.3026,4.60110,2470.717,2023-5-02T04:36:54Z
2023-05-02T02:36:52Z,42.805,6.029,13.3039,4.60116,2470.754,2023-5-02T04:39:58Z
2023-05-02T02:39:55Z,42.805,6.029,13.3029,4.60125,2470.693,2023-5-02T04:43:01Z
2023-05-02T02:42:58Z,42.805,6.029,13.3030,4.60101,2470.707,2023-5-02T04:46:04Z
2023-05-02T02:46:01Z,42.805,6.029,13.3032,4.60095,2470.717,2023-5-02T04:49:07Z
2023-05-02T02:49:04Z,42.805,6.029,13.3026,4.60118,2470.693,2023-5-02T04:52:10Z
2023-05-02T02:52:07Z,42.805,6.029,13.3034,4.60100,2470.73,2023-5-02T04:55:13Z
2023-05-02T02:55:10Z,42.805,6.029,13.3030,4.60112,2470.717,2023-5-02T04:58:16Z
2023-05-02T02:58:13Z,42.805,6.029,13.3027,4.60096,2470.74,2023-5-02T05:01:19Z
2023-05-02T03:01:16Z,42.805,6.029,13.3029,4.60093,2470.73,2023-5-02T05:04:22Z
2023-05-02T03:04:19Z,42.805,6.029,13.3030,4.60129,2470.754,2023-5-02T05:07:25Z
2023-05-02T03:07:22Z,42.805,6.029,13.3026,4.60107,2470.717,2023-5-02T05:10:28Z
2023-05-02T03:10:25Z,42.805,6.029,13.3040,4.60110,2470.717,2023-5-02T05:13:31Z
2023-05-02T03:13:28Z,42.805,6.029,13.3034,4.60098,2470.754,2023-5-02T05:16:35Z
2023-05-02T03:16:32Z,42.805,6.029,13.3024,4.60090,2470.717,2023-5-02T05:19:38Z
2023-05-02T03:19:35Z,42.805,6.029,13.3031,4.60097,2470.73,2023-5-02T05:22:41Z
2023-05-02T03:22:38Z,42.805,6.029,13.3028,4.60108,2470.717,2023-5-02T05:25:44Z
2023-05-02T03:25:41Z,42.805,6.029,13.3037,4.60114,2470.73,2023-5-02T05:28:47Z
2023-05-02T03:28:44Z,42.805,6.029,13.3028,4.60114,2470.74,2023-5-02T05:31:50Z
2023-05-02T03:31:47Z,42.805,6.029,13.3031,4.60115,2470.754,2023-5-02T05:34:53Z
2023-05-02T03:34:50Z,42.805,6.029,13.3032,4.60106,2470.717,2023-5-02T05:37:56Z
2023-05-02T03:37:53Z,42.805,6.029,13.3033,4.60122,2470.717,2023-5-02T05:40:59Z
2023-05-02T03:40:56Z,42.805,6.029,13.3028,4.60117,2470.717,2023-5-02T05:44:02Z
2023-05-02T03:43:59Z,42.805,6.029,13.3032,4.60105,2470.717,2023-5-02T05:47:05Z
2023-05-02T03:47:02Z,42.805,6.029,13.3038,4.60114,2470.73,2023-5-02T05:50:08Z
2023-05-02T03:50:05Z,42.805,6.029,13.3031,4.60099,2470.754,2023-5-02T05:53:11Z
2023-05-02T03:53:08Z,42.805,6.029,13.3045,4.60115,2470.717,2023-5-02T05:56:15Z
2023-05-02T03:56:12Z,42.805,6.029,13.3034,4.60112,2470.717,2023-5-02T05:59:18Z
2023-05-02T03:59:15Z,42.805,6.029,13.3027,4.60119,2470.73,2023-5-02T06:02:21Z
2023-05-02T04:02:18Z,42.805,6.029,13.3028,4.60097,2470.717,2023-5-02T06:05:24Z
2023-05-02T04:05:21Z,42.805,6.029,13.3029,4.60111,2470.73,2023-5-02T06:08:27Z
2023-05-02T04:08:24Z,42.805,6.029,13.3030,4.60119,2470.74,2023-5-02T06:11:30Z
2023-05-02T04:11:27Z,42.805,6.029,13.3031,4.60114,2470.754,2023-5-02T06:14:33Z
2023-05-02T04:14:30Z,42.805,6.029,13.3039,4.60117,2470.763,2023-5-02T06:17:36Z
2023-05-02T04:17:33Z,42.805,6.029,13.3040,4.60114,2470.754,2023-5-02T06:20:39Z
2023-05-02T04:20:36Z,42.805,6.029,13.3029,4.60117,2470.717,2023-5-02T06:23:42Z
2023-05-02T04:23:39Z,42.805,6.029,13.3031,4.60117,2470.763,2023-5-02T06:26:45Z
2023-05-02T04:26:42Z,42.805,6.029,13.3032,4.60104,2470.754,2023-5-02T06:29:48Z
2023-05-02T04:29:45Z,42.805,6.029,13.3033,4.60118,2470.754,2023-5-02T06:32:51Z
2023-05-02T04:32:49Z,42.805,6.029,13.3036,4.60097,2470.74,2023-5-02T06:35:55Z
2023-05-02T04:35:52Z,42.805,6.029,13.3036,4.60102,2470.8,2023-5-02T06:38:58Z
2023-05-02T04:38:55Z,42.805,6.029,13.3034,4.60125,2470.777,2023-5-02T06:42:01Z
2023-05-02T04:41:58Z,42.805,6.029,13.3034,4.60119,2470.74,2023-5-02T06:45:04Z
2023-05-02T04:45:01Z,42.805,6.029,13.3034,4.60100,2470.74,2023-5-02T06:48:07Z
2023-05-02T04:48:04Z,42.805,6.029,13.3029,4.60125,2470.74,2023-5-02T06:51:10Z
2023-05-02T04:51:07Z,42.805,6.029,13.3036,4.60112,2470.754,2023-5-02T06:54:13Z
2023-05-02T04:54:10Z,42.805,6.029,13.3033,4.60112,2470.74,2023-5-02T06:57:16Z
2023-05-02T04:57:13Z,42.805,6.029,13.3031,4.60115,2470.777,2023-5-02T07:00:20Z
2023-05-02T05:00:16Z,42.805,6.029,13.3036,4.60125,2470.777,2023-5-02T07:03:23Z
2023-05-02T05:03:20Z,42.805,6.029,13.3030,4.60129,2470.754,2023-5-02T07:06:26Z
2023-05-02T05:06:23Z,42.805,6.029,13.3037,4.60117,2470.8,2023-5-02T07:09:29Z
2023-05-02T05:09:26Z,42.805,6.029,13.3034,4.60117,2470.763,2023-5-02T07:12:32Z
2023-05-02T05:12:29Z,42.805,6.029,13.3033,4.60113,2470.74,2023-5-02T07:15:35Z
2023-05-02T05:15:32Z,42.805,6.029,13.3038,4.60122,2470.8,2023-5-02T07:18:38Z
2023-05-02T05:18:35Z,42.805,6.029,13.3032,4.60107,2470.74,2023-5-02T07:21:41Z
2023-05-02T05:21:38Z,42.805,6.029,13.3033,4.60104,2470.74,2023-5-02T07:24:44Z
2023-05-02T05:24:41Z,42.805,6.029,13.3037,4.60102,2470.717,2023-5-02T07:27:47Z
2023-05-02T05:27:44Z,42.805,6.029,13.3038,4.60112,2470.763,2023-5-02T07:30:50Z
2023-05-02T05:30:47Z,42.805,6.029,13.3037,4.60126,2470.787,2023-5-02T07:33:53Z
2023-05-02T05:33:50Z,42.805,6.029,13.3027,4.60112,2470.74,2023-5-02T07:36:56Z
2023-05-02T05:36:53Z,42.805,6.029,13.3031,4.60122,2470.787,2023-5-02T07:40:00Z
2023-05-02T05:39:57Z,42.805,6.029,13.3037,4.60111,2470.763,2023-5-02T07:43:03Z
2023-05-02T05:43:00Z,42.805,6.029,13.3038,4.60114,2470.74,2023-5-02T07:46:06Z
2023-05-02T05:46:03Z,42.805,6.029,13.3039,4.60122,2470.73,2023-5-02T07:49:09Z
2023-05-02T05:49:06Z,42.805,6.029,13.3036,4.60113,2470.763,2023-5-02T07:52:12Z
2023-05-02T05:52:09Z,42.805,6.029,13.3032,4.60115,2470.777,2023-5-02T07:55:15Z
2023-05-02T05:55:12Z,42.805,6.029,13.3034,4.60112,2470.717,2023-5-02T07:58:18Z
2023-05-02T05:58:15Z,42.805,6.029,13.3034,4.60100,2470.763,2023-5-02T08:01:21Z
2023-05-02T06:01:18Z,42.805,6.029,13.3033,4.60101,2470.74,2023-5-02T08:04:24Z
2023-05-02T06:04:21Z,42.805,6.029,13.3034,4.60109,2470.754,2023-5-02T08:07:27Z
2023-05-02T06:07:24Z,42.805,6.029,13.3036,4.60104,2470.777,2023-5-02T08:10:30Z
2023-05-02T06:10:27Z,42.805,6.029,13.3034,4.60106,2470.74,2023-5-02T08:13:33Z
2023-05-02T06:13:30Z,42.805,6.029,13.3031,4.60117,2470.73,2023-5-02T08:16:36Z
2023-05-02T06:16:33Z,42.805,6.029,13.3033,4.60119,2470.763,2023-5-02T08:19:40Z
2023-05-02T06:19:37Z,42.805,6.029,13.3029,4.60120,2470.754,2023-5-02T08:22:43Z
2023-05-02T06:22:40Z,42.805,6.029,13.3030,4.60124,2470.763,2023-5-02T08:25:46Z
2023-05-02T06:25:43Z,42.805,6.029,13.3032,4.60119,2470.754,2023-5-02T08:28:49Z
2023-05-02T06:28:46Z,42.805,6.029,13.3031,4.60126,2470.754,2023-5-02T08:31:52Z
2023-05-02T06:31:49Z,42.805,6.029,13.3038,4.60112,2470.74,2023-5-02T08:34:55Z
2023-05-02T06:34:52Z,42.805,6.029,13.3032,4.60113,2470.717,2023-5-02T08:37:58Z
2023-05-02T06:37:55Z,42.805,6.029,13.3031,4.60123,2470.73,2023-5-02T08:41:01Z
2023-05-02T06:40:58Z,42.805,6.029,13.3031,4.60120,2470.717,2023-5-02T08:44:04Z
2023-05-02T06:44:01Z,42.805,6.029,13.3034,4.60117,2470.726,2023-5-02T08:47:07Z
2023-05-02T06:47:04Z,42.805,6.029,13.3029,4.60113,2470.754,2023-5-02T08:50:10Z
2023-05-02T06:50:07Z,42.805,6.029,13.3029,4.60107,2470.754,2023-5-02T08:53:13Z
2023-05-02T06:53:10Z,42.805,6.029,13.3029,4.60098,2470.74,2023-5-02T08:56:17Z
2023-05-02T06:56:13Z,42.805,6.029,13.3034,4.60125,2470.73,2023-5-02T08:59:20Z
2023-05-02T06:59:17Z,42.805,6.029,13.3034,4.60125,2470.703,2023-5-02T09:02:23Z
2023-05-02T07:02:20Z,42.805,6.029,13.3036,4.60127,2470.74,2023-5-02T09:05:26Z
2023-05-02T07:05:23Z,42.805,6.029,13.3031,4.60107,2470.73,2023-5-02T09:08:29Z
2023-05-02T07:08:26Z,42.805,6.029,13.3035,4.60104,2470.693,2023-5-02T09:11:32Z
2023-05-02T07:11:29Z,42.805,6.029,13.3032,4.60117,2470.763,2023-5-02T09:14:35Z
2023-05-02T07:14:32Z,42.805,6.029,13.3033,4.60126,2470.74,2023-5-02T09:17:38Z
2023-05-02T07:17:35Z,42.805,6.029,13.3031,4.60105,2470.717,2023-5-02T09:20:41Z
2023-05-02T07:20:38Z,42.805,6.029,13.3035,4.60116,2470.717,2023-5-02T09:23:44Z
2023-05-02T07:23:41Z,42.805,6.029,13.3031,4.60114,2470.693,2023-5-02T09:26:47Z
2023-05-02T07:26:44Z,42.805,6.029,13.3027,4.60106,2470.717,2023-5-02T09:29:50Z
2023-05-02T07:29:47Z,42.805,6.029,13.3031,4.60109,2470.717,2023-5-02T09:32:54Z
2023-05-02T07:32:50Z,42.805,6.029,13.3024,4.60112,2470.744,2023-5-02T09:35:57Z
2023-05-02T07:35:54Z,42.805,6.029,13.3029,4.60102,2470.717,2023-5-02T09:39:00Z
2023-05-02T07:38:57Z,42.805,6.029,13.3029,4.60099,2470.707,2023-5-02T09:42:03Z
2023-05-02T07:42:00Z,42.805,6.029,13.3038,4.60118,2470.707,2023-5-02T09:45:06Z
2023-05-02T07:45:03Z,42.805,6.029,13.3029,4.60099,2470.73,2023-5-02T09:48:09Z
2023-05-02T07:48:06Z,42.805,6.029,13.3034,4.60102,2470.693,2023-5-02T09:51:12Z
2023-05-02T07:51:09Z,42.805,6.029,13.3036,4.60099,2470.754,2023-5-02T09:54:15Z
2023-05-02T07:54:12Z,42.805,6.029,13.3029,4.60099,2470.693,2023-5-02T09:57:18Z
2023-05-02T07:57:15Z,42.805,6.029,13.3034,4.60109,2470.73,2023-5-02T10:00:21Z
2023-05-02T08:00:18Z,42.805,6.029,13.3027,4.60127,2470.684,2023-5-02T10:03:24Z
2023-05-02T08:03:21Z,42.805,6.029,13.3034,4.60098,2470.693,2023-5-02T10:06:27Z
2023-05-02T08:06:24Z,42.805,6.029,13.3026,4.60099,2470.646,2023-5-02T10:09:30Z
2023-05-02T08:09:27Z,42.805,6.029,13.3026,4.60126,2470.693,2023-5-02T10:12:34Z
2023-05-02T08:12:30Z,42.805,6.029,13.3029,4.60120,2470.693,2023-5-02T10:15:37Z
2023-05-02T08:15:34Z,42.805,6.029,13.3029,4.60119,2470.707,2023-5-02T10:18:40Z
2023-05-02T08:18:37Z,42.805,6.029,13.3033,4.60105,2470.693,2023-5-02T10:21:43Z
2023-05-02T08:21:40Z,42.805,6.029,13.3033,4.60126,2470.693,2023-5-02T10:24:46Z
2023-05-02T08:24:43Z,42.805,6.029,13.3034,4.60107,2470.684,2023-5-02T10:27:49Z
2023-05-02T08:27:46Z,42.805,6.029,13.3025,4.60112,2470.684,2023-5-02T10:30:52Z
2023-05-02T08:30:49Z,42.805,6.029,13.3037,4.60110,2470.693,2023-5-02T10:33:55Z
2023-05-02T08:33:52Z,42.805,6.029,13.3034,4.60115,2470.67,2023-5-02T10:36:58Z
2023-05-02T08:36:55Z,42.805,6.029,13.3031,4.60103,2470.661,2023-5-02T10:40:01Z
2023-05-02T08:39:58Z,42.805,6.029,13.3033,4.60105,2470.684,2023-5-02T10:43:04Z
2023-05-02T08:43:01Z,42.805,6.029,13.3034,4.60113,2470.646,2023-5-02T10:46:08Z
2023-05-02T08:46:04Z,42.805,6.029,13.3033,4.60116,2470.661,2023-5-02T10:49:11Z
2023-05-02T08:49:07Z,42.805,6.029,13.3041,4.60114,2470.633,2023-5-02T10:52:14Z
2023-05-02T08:52:11Z,42.805,6.029,13.3038,4.60119,2470.67,2023-5-02T10:55:17Z
2023-05-02T08:55:14Z,42.805,6.029,13.3031,4.60101,2470.684,2023-5-02T10:58:20Z
2023-05-02T08:58:17Z,42.805,6.029,13.3043,4.60112,2470.684,2023-5-02T11:01:23Z
2023-05-02T09:01:20Z,42.805,6.029,13.3024,4.60110,2470.646,2023-5-02T11:04:26Z
2023-05-02T09:04:23Z,42.805,6.029,13.3035,4.60102,2470.646,2023-5-02T11:07:29Z
2023-05-02T09:07:26Z,42.805,6.029,13.3030,4.60098,2470.646,2023-5-02T11:10:32Z
2023-05-02T09:10:29Z,42.805,6.029,13.3036,4.60120,2470.624,2023-5-02T11:13:35Z
2023-05-02T09:13:32Z,42.805,6.029,13.3029,4.60102,2470.624,2023-5-02T11:16:38Z
2023-05-02T09:16:35Z,42.805,6.029,13.3035,4.60120,2470.637,2023-5-02T11:19:41Z
2023-05-02T09:19:38Z,42.805,6.029,13.3030,4.60112,2470.624,2023-5-02T11:22:45Z
2023-05-02T09:22:41Z,42.805,6.029,13.3042,4.60121,2470.646,2023-5-02T11:25:48Z
2023-05-02T09:25:44Z,42.805,6.029,13.3030,4.60097,2470.646,2023-5-02T11:28:51Z
2023-05-02T09:28:48Z,42.805,6.029,13.3030,4.60101,2470.637,2023-5-02T11:31:54Z
2023-05-02T09:31:51Z,42.805,6.029,13.3033,4.60103,2470.646,2023-5-02T11:34:57Z
2023-05-02T09:34:54Z,42.805,6.029,13.3036,4.60104,2470.637,2023-5-02T11:38:00Z
2023-05-02T09:37:57Z,42.805,6.029,13.3039,4.60132,2470.614,2023-5-02T11:41:03Z
2023-05-02T09:41:00Z,42.805,6.029,13.3031,4.60119,2470.661,2023-5-02T11:44:06Z
2023-05-02T09:44:03Z,42.805,6.029,13.3033,4.60120,2470.661,2023-5-02T11:47:09Z
2023-05-02T09:47:06Z,42.805,6.029,13.3037,4.60112,2470.67,2023-5-02T11:50:12Z
2023-05-02T09:50:09Z,42.805,6.029,13.3041,4.60125,2470.624,2023-5-02T11:53:15Z
2023-05-02T09:53:12Z,42.805,6.029,13.3032,4.60111,2470.624,2023-5-02T11:56:18Z
2023-05-02T09:56:15Z,42.805,6.029,13.3033,4.60115,2470.614,2023-5-02T11:59:22Z
2023-05-02T09:59:18Z,42.805,6.029,13.3038,4.60116,2470.586,2023-5-02T12:02:25Z
2023-05-02T10:02:21Z,42.805,6.029,13.3029,4.60102,2470.6,2023-5-02T12:05:28Z
2023-05-02T10:05:25Z,42.805,6.029,13.3031,4.60101,2470.577,2023-5-02T12:08:31Z
2023-05-02T10:08:28Z,42.805,6.029,13.3041,4.60098,2470.6,2023-5-02T12:11:34Z
2023-05-02T10:11:31Z,42.805,6.029,13.3030,4.60104,2470.6,2023-5-02T12:14:37Z
2023-05-02T10:14:34Z,42.805,6.029,13.3032,4.60105,2470.6,2023-5-02T12:17:40Z
2023-05-02T10:17:37Z,42.805,6.029,13.3027,4.60099,2470.614,2023-5-02T12:20:43Z
2023-05-02T10:20:40Z,42.805,6.029,13.3033,4.60095,2470.614,2023-5-02T12:23:46Z
2023-05-02T10:23:43Z,42.805,6.029,13.3035,4.60114,2470.614,2023-5-02T12:26:49Z
2023-05-02T10:26:46Z,42.805,6.029,13.3031,4.60100,2470.6,2023-5-02T12:29:52Z
2023-05-02T10:29:49Z,42.805,6.029,13.3029,4.60104,2470.624,2023-5-02T12:32:55Z
2023-05-02T10:32:50Z,42.805,6.029,13.3030,4.60119,2470.614,2023-5-02T12:35:57Z
2023-05-02T10:35:53Z,42.805,6.029,13.3033,4.60109,2470.6,2023-5-02T12:39:00Z
2023-05-02T10:38:57Z,42.805,6.029,13.3033,4.60108,2470.637,2023-5-02T12:42:03Z
2023-05-02T10:42:00Z,42.805,6.029,13.3029,4.60101,2470.614,2023-5-02T12:45:06Z
2023-05-02T10:45:03Z,42.805,6.029,13.3031,4.60107,2470.624,2023-5-02T12:48:09Z
2023-05-02T10:48:06Z,42.805,6.029,13.3035,4.60127,2470.577,2023-5-02T12:51:12Z
2023-05-02T10:51:09Z,42.805,6.029,13.3027,4.60120,2470.6,2023-5-02T12:54:15Z
2023-05-02T10:54:12Z,42.805,6.029,13.3030,4.60097,2470.624,2023-5-02T12:57:18Z
2023-05-02T10:57:15Z,42.805,6.029,13.3034,4.60121,2470.6,2023-5-02T13:00:21Z
2023-05-02T11:00:18Z,42.805,6.029,13.3035,4.60124,2470.567,2023-5-02T13:03:24Z
2023-05-02T11:03:21Z,42.805,6.029,13.3039,4.60124,2470.614,2023-5-02T13:06:27Z
2023-05-02T11:06:24Z,42.805,6.029,13.3039,4.60117,2470.553,2023-5-02T13:09:30Z
2023-05-02T11:09:27Z,42.805,6.029,13.3032,4.60102,2470.577,2023-5-02T13:12:34Z
2023-05-02T11:12:30Z,42.805,6.029,13.3032,4.60104,2470.6,2023-5-02T13:15:37Z
2023-05-02T11:15:33Z,42.805,6.029,13.3038,4.60097,2470.577,2023-5-02T13:18:40Z
2023-05-02T11:18:37Z,42.805,6.029,13.3039,4.60113,2470.6,2023-5-02T13:21:43Z
2023-05-02T11:21:40Z,42.805,6.029,13.3038,4.60122,2470.577,2023-5-02T13:24:46Z
2023-05-02T11:24:43Z,42.805,6.029,13.3031,4.60104,2470.6,2023-5-02T13:27:49Z
2023-05-02T11:27:46Z,42.805,6.029,13.3025,4.60117,2470.591,2023-5-02T13:30:52Z
2023-05-02T11:30:49Z,42.805,6.029,13.3034,4.60103,2470.577,2023-5-02T13:33:55Z
2023-05-02T11:33:52Z,42.805,6.029,13.3024,4.60101,2470.577,2023-5-02T13:36:58Z
2023-05-02T11:36:55Z,42.805,6.029,13.3031,4.60104,2470.6,2023-5-02T13:40:01Z
2023-05-02T11:39:58Z,42.805,6.029,13.3041,4.60109,2470.577,2023-5-02T13:43:04Z
2023-05-02T11:43:01Z,42.805,6.029,13.3035,4.60110,2470.577,2023-5-02T13:46:07Z
2023-05-02T11:46:04Z,42.805,6.029,13.3031,4.60112,2470.544,2023-5-02T13:49:11Z
2023-05-02T11:49:07Z,42.805,6.029,13.3031,4.60102,2470.577,2023-5-02T13:52:14Z
2023-05-02T11:52:10Z,42.805,6.029,13.3036,4.60114,2470.577,2023-5-02T13:55:17Z
2023-05-02T11:55:13Z,42.805,6.029,13.3029,4.60107,2470.53,2023-5-02T13:58:20Z
2023-05-02T11:58:17Z,42.805,6.029,13.3029,4.60113,2470.53,2023-5-02T14:01:23Z
2023-05-02T12:01:20Z,42.805,6.029,13.3032,4.60116,2470.553,2023-5-02T14:04:26Z
2023-05-02T12:04:23Z,42.805,6.029,13.3034,4.60110,2470.567,2023-5-02T14:07:29Z
2023-05-02T12:07:26Z,42.805,6.029,13.3033,4.60122,2470.6,2023-5-02T14:10:32Z
2023-05-02T12:10:29Z,42.805,6.029,13.3027,4.60113,2470.591,2023-5-02T14:13:35Z
2023-05-02T12:13:32Z,42.805,6.029,13.3029,4.60119,2470.591,2023-5-02T14:16:38Z
2023-05-02T12:16:35Z,42.805,6.029,13.3027,4.60116,2470.591,2023-5-02T14:19:41Z
2023-05-02T12:19:38Z,42.805,6.029,13.3039,4.60110,2470.577,2023-5-02T14:22:44Z
2023-05-02T12:22:41Z,42.805,6.029,13.3036,4.60111,2470.553,2023-5-02T14:25:47Z
2023-05-02T12:25:44Z,42.805,6.029,13.3032,4.60113,2470.577,2023-5-02T14:28:51Z
2023-05-02T12:28:47Z,42.805,6.029,13.3039,4.60122,2470.577,2023-5-02T14:31:54Z
2023-05-02T12:31:50Z,42.805,6.029,13.3034,4.60109,2470.553,2023-5-02T14:34:57Z
2023-05-02T12:34:54Z,42.805,6.029,13.3031,4.60096,2470.553,2023-5-02T14:38:00Z
2023-05-02T12:37:57Z,42.805,6.029,13.3025,4.60102,2470.553,2023-5-02T14:41:03Z
2023-05-02T12:41:00Z,42.805,6.029,13.3035,4.60114,2470.567,2023-5-02T14:44:06Z
2023-05-02T12:44:03Z,42.805,6.029,13.3031,4.60115,2470.567,2023-5-02T14:47:09Z
2023-05-02T12:47:06Z,42.805,6.029,13.3029,4.60107,2470.553,2023-5-02T14:50:12Z
2023-05-02T12:50:09Z,42.805,6.029,13.3029,4.60108,2470.591,2023-5-02T14:53:15Z
2023-05-02T12:53:12Z,42.805,6.029,13.3030,4.60107,2470.567,2023-5-02T14:56:18Z
2023-05-02T12:56:15Z,42.805,6.029,13.3033,4.60104,2470.591,2023-5-02T14:59:21Z
2023-05-02T12:59:18Z,42.805,6.029,13.3030,4.60119,2470.567,2023-5-02T15:02:24Z
2023-05-02T13:02:21Z,42.805,6.029,13.3031,4.60114,2470.553,2023-5-02T15:05:28Z
2023-05-02T13:05:24Z,42.805,6.029,13.3035,4.60103,2470.591,2023-5-02T15:08:31Z
2023-05-02T13:08:27Z,42.805,6.029,13.3029,4.60104,2470.577,2023-5-02T15:11:34Z
2023-05-02T13:11:30Z,42.805,6.029,13.3037,4.60114,2470.591,2023-5-02T15:14:37Z
2023-05-02T13:14:34Z,42.805,6.029,13.3041,4.60112,2470.553,2023-5-02T15:17:40Z
2023-05-02T13:17:37Z,42.805,6.029,13.3031,4.60118,2470.591,2023-5-02T15:20:43Z
2023-05-02T13:20:40Z,42.805,6.029,13.3026,4.60092,2470.6,2023-5-02T15:23:46Z
2023-05-02T13:23:43Z,42.805,6.029,13.3031,4.60107,2470.553,2023-5-02T15:26:49Z
2023-05-02T13:26:46Z,42.805,6.029,13.3032,4.60099,2470.6,2023-5-02T15:29:52Z
2023-05-02T13:29:49Z,42.805,6.029,13.3030,4.60100,2470.591,2023-5-02T15:32:55Z
2023-05-02T13:32:52Z,42.805,6.029,13.3025,4.60110,2470.553,2023-5-02T15:35:58Z
2023-05-02T13:35:55Z,42.805,6.029,13.3035,4.60114,2470.591,2023-5-02T15:39:01Z
2023-05-02T13:38:58Z,42.805,6.029,13.3030,4.60108,2470.614,2023-5-02T15:42:04Z
2023-05-02T13:42:01Z,42.805,6.029,13.3026,4.60098,2470.591,2023-5-02T15:45:08Z
2023-05-02T13:45:04Z,42.805,6.029,13.3026,4.60104,2470.553,2023-5-02T15:48:11Z
2023-05-02T13:48:07Z,42.805,6.029,13.3028,4.60092,2470.624,2023-5-02T15:51:14Z
2023-05-02T13:51:11Z,42.805,6.029,13.3028,4.60110,2470.6,2023-5-02T15:54:17Z
2023-05-02T13:54:14Z,42.805,6.029,13.3029,4.60094,2470.563,2023-5-02T15:57:20Z
2023-05-02T13:57:17Z,42.805,6.029,13.3029,4.60090,2470.614,2023-5-02T16:00:23Z
2023-05-02T14:00:20Z,42.805,6.029,13.3026,4.60100,2470.6,2023-5-02T16:03:26Z
2023-05-02T14:03:23Z,42.805,6.029,13.3031,4.60092,2470.614,2023-5-02T16:06:29Z
2023-05-02T14:06:26Z,42.805,6.029,13.3026,4.60105,2470.6,2023-5-02T16:09:32Z
2023-05-02T14:09:29Z,42.805,6.029,13.3025,4.60101,2470.6,2023-5-02T16:12:35Z
2023-05-02T14:12:32Z,42.805,6.029,13.3024,4.60097,2470.591,2023-5-02T16:15:38Z
2023-05-02T14:15:35Z,42.805,6.029,13.3024,4.60098,2470.6,2023-5-02T16:18:41Z
2023-05-02T14:18:38Z,42.805,6.029,13.3032,4.60089,2470.6,2023-5-02T16:21:45Z
2023-05-02T14:21:41Z,42.805,6.029,13.3027,4.60104,2470.624,2023-5-02T16:24:48Z
2023-05-02T14:24:44Z,42.805,6.029,13.3028,4.60102,2470.6,2023-5-02T16:27:51Z
2023-05-02T14:27:47Z,42.805,6.029,13.3034,4.60108,2470.591,2023-5-02T16:30:54Z
2023-05-02T14:30:50Z,42.805,6.029,13.3034,4.60109,2470.614,2023-5-02T16:33:56Z
2023-05-02T14:33:53Z,42.805,6.029,13.3033,4.60096,2470.637,2023-5-02T16:36:59Z
2023-05-02T14:36:56Z,42.805,6.029,13.3032,4.60114,2470.6,2023-5-02T16:40:02Z
2023-05-02T14:39:59Z,42.805,6.029,13.3031,4.60090,2470.661,2023-5-02T16:43:05Z
2023-05-02T14:43:02Z,42.805,6.029,13.3029,4.60092,2470.6,2023-5-02T16:46:09Z
2023-05-02T14:46:05Z,42.805,6.029,13.3037,4.60092,2470.624,2023-5-02T16:49:12Z
2023-05-02T14:49:08Z,42.805,6.029,13.3035,4.60104,2470.6,2023-5-02T16:52:15Z
2023-05-02T14:52:11Z,42.805,6.029,13.3026,4.60092,2470.646,2023-5-02T16:55:18Z
2023-05-02T14:55:15Z,42.805,6.029,13.3029,4.60104,2470.637,2023-5-02T16:58:21Z
2023-05-02T14:58:18Z,42.805,6.029,13.3034,4.60098,2470.637,2023-5-02T17:01:24Z
2023-05-02T15:01:21Z,42.805,6.029,13.3027,4.60089,2470.646,2023-5-02T17:04:27Z
2023-05-02T15:04:24Z,42.805,6.029,13.3030,4.60103,2470.661,2023-5-02T17:07:30Z
2023-05-02T15:07:27Z,42.805,6.029,13.3021,4.60089,2470.637,2023-5-02T17:10:33Z
2023-05-02T15:10:30Z,42.805,6.029,13.3026,4.60101,2470.646,2023-5-02T17:13:36Z
2023-05-02T15:13:33Z,42.805,6.029,13.3034,4.60119,2470.661,2023-5-02T17:16:39Z